Flag for Canada Weather past 2 weeks in Conception Bay South, Newfoundland and Labrador, Canada

Now
77 °F

Partly sunny.


Feels Like: 78 °F
Forecast: 62 / 71 °F
Wind: 10 mph from West

Location: St. John's

Current Time: Jul 25, 2014 at 4:26:00 PM

Latest Report: Jul 25, 2014 at 3:30 PM


Visibility: 15 mi

Pressure: 29.78 "Hg

Humidity: 83%

Dew point: 72 °F

Location of Conception Bay SouthLocation

Historic Weather in Conception Bay South — Graph

°F

Conception Bay South temperature yesterday

Maximum temperature yesterday: 77 °F (at 12:30 PM)
Minimum temperature yesterday: 63 °F (at 1:30 AM)
Average temperature yesterday: 69 °F

Past Weeks' High & Low Weather Summary

 TemperatureHumidityPressure
High84 °F (Jul 21, 2:30 PM)100% (Jul 11, 2:30 AM)30.26 "Hg (Jul 11, 2:30 AM)
Low48 °F (Jul 20, 1:30 AM)27% (Jul 21, 3:30 PM)29.78 "Hg (Jul 24, 4:30 AM)
Average68 °F76%30.02 "Hg
* Reported Jul 10 2:30 PM — Jul 25 2:30 PM, Conception Bay South, Weather by CustomWeather, © 2014

Note: Actual official high and low records may vary slightly from our data, if they occured in-between our weather recording intervals... More about our weather records

Advertising

Conception Bay South weather history for previous 24 hours

 ConditionsComfort  
Time TempWeatherWind HumidityBarometerVisibility
2:30 PM
Jul 25
75 °FPartly sunny.12 mph83%29.78 "Hg15 mi
1:30 PM75 °FPartly sunny.10 mph83%29.79 "Hg15 mi
12:30 PM73 °FPartly sunny.14 mph94%29.80 "Hg15 mi
11:30 AM68 °FSprinkles. Partly sunny.15 mph100%29.81 "Hg15 mi
10:30 AM70 °FSprinkles. Partly sunny.18 mph94%29.81 "Hg15 mi
9:30 AM66 °FSprinkles. More clouds than sun.12 mph100%29.82 "Hg8 mi
8:30 AM63 °FRain showers. Fog.9 mph100%29.83 "Hg3 mi
7:30 AM64 °FMild.3 mph100%29.86 "Hg3 mi
6:30 AM66 °FPartly sunny.10 mph94%29.85 "Hg15 mi
5:30 AM66 °FPassing clouds.12 mph94%29.86 "Hg15 mi
4:30 AM66 °FPassing clouds.13 mph94%29.87 "Hg15 mi
3:30 AM66 °FPassing clouds.10 mph94%29.88 "Hg15 mi
2:30 AM64 °FPartly cloudy.13 mph100%29.89 "Hg15 mi
1:30 AM64 °FPassing clouds.12 mph94%29.90 "Hg15 mi
12:30 AM64 °FPassing clouds.12 mph94%29.91 "Hg15 mi
11:30 PM
Jul 24
64 °FClear.14 mph88%29.91 "Hg15 mi
10:30 PM66 °FClear.15 mph88%29.91 "Hg15 mi
9:30 PM68 °FPassing clouds.17 mph88%29.91 "Hg15 mi
8:30 PM70 °FScattered clouds.17 mph83%29.90 "Hg15 mi
7:30 PM72 °FPassing clouds.23 mph73%29.88 "Hg15 mi
6:30 PM73 °FPassing clouds.18 mph65%29.87 "Hg15 mi
5:30 PM75 °FScattered clouds.22 mph69%29.85 "Hg15 mi
4:30 PM75 °FPassing clouds.22 mph74%29.84 "Hg15 mi
Weather by CustomWeather, © 2014

See weather overviewHow to use our weather pages